Theta_e
317 316 318 316 315 315 316 314 315 315 314 314 314 311 313 312 310 311 309 308 307 307
317 315 315 315 315 315 316 318 315 319 315 314 315 315 316 314 313 313 311 311 307 307
318 316 316 316 316 316 316 316 317 317 316 315 316 316 315 315 313 312 312 313 308 308
317 317 317 315 315 317 316 318 317 320 317 317 316 314 313 312 313 314 310 310 311 312
316 317 316 317 318 318 317 317 318 317 318 317 315 315 315 314 315 312 311 311 310 310
317 317 316 318 318 319 317 317 318 318 317 316 317 316 314 314 314 314 312 312 311 311
316 318 318 320 320 318 317 317 317 318 318 318 318 318 317 316 314 314 314 313 313 313
316 317 318 318 318 319 318 318 318 318 318 319 319 320 317 316 315 314 313 314 314 314
316 318 318 318 319 318 318 317 318 319 319 318 320 316 314 315 312 313 314 314 314 315
317 317 316 317 318 318 317 317 319 320 320 320 320 313 311 313 314 312 314 314 315 316
316 316 316 318 316 316 317 318 319 319 320 320 323 313 310 311 316 315 316 317 318 317
316 315 317 317 316 317 318 319 320 320 320 319 322 313 309 311 316 318 318 319 320 319
316 315 315 315 316 318 319 320 321 320 320 319 321 313 309 310 318 312 314 318 319 313
316 316 317 318 319 320 320 321 319 320 322 322 318 320 307 303 310 314 315 316 315 315
Wind_Speed
6 2 3 3 2 1 1 1 3 3 3 2 2 0 1 1 2 4 3 6 4 3
6 5 4 5 3 2 2 2 1 3 4 4 5 5 4 3 4 4 4 5 5 4
7 7 5 4 6 5 4 3 3 5 5 5 6 5 6 5 5 5 4 4 4 5
7 6 5 5 4 7 5 5 5 5 6 6 6 5 6 7 7 6 5 6 6 6
7 6 5 5 5 5 7 6 6 6 6 6 6 7 6 8 7 7 6 7 6 7
7 6 7 7 6 5 5 5 6 6 7 7 7 7 7 7 7 8 7 7 7 7
7 7 7 7 6 6 6 6 7 7 7 7 8 8 8 7 7 7 7 8 7 7
6 7 6 6 6 6 6 6 7 7 7 7 8 7 8 8 8 8 8 8 8 8
4 5 7 7 7 7 7 7 7 8 8 8 8 11 13 10 7 8 9 10 9 9
5 6 7 7 7 7 8 8 8 9 8 10 11 12 15 17 9 9 10 11 10 9
6 6 7 7 8 8 6 8 7 8 9 9 11 12 16 19 11 7 13 11 12 12
6 5 5 5 6 7 5 6 7 6 8 7 13 13 15 13 7 10 12 10 8 6
5 4 5 6 8 6 6 7 5 6 5 10 11 15 15 9 7 8 7 11 10 11
5 5 6 7 5 6 7 6 5 7 8 9 8 11 12 10 4 5 7 8 5 5
Wind_Direction
175 193 161 152 162 168 16 242 201 168 173 244 197 179 326 282 269 274 277 283 264 262
182 189 207 202 198 219 218 263 301 316 217 231 248 247 203 251 275 262 264 270 267 256
186 196 212 196 216 215 241 242 269 283 288 238 254 235 223 241 263 262 265 266 277 260
183 200 201 208 223 206 222 237 249 262 268 274 263 265 233 245 252 252 251 268 262 270
187 192 204 214 234 216 219 240 232 251 261 269 272 274 247 246 255 251 260 260 258 262
195 198 214 227 228 231 226 247 245 242 249 255 259 262 263 251 254 253 242 247 244 245
197 210 222 225 220 221 239 251 253 254 247 246 250 254 259 255 258 252 239 239 238 243
193 205 205 211 229 237 238 249 253 260 259 255 254 256 248 247 246 242 249 246 240 237
237 226 216 220 225 227 243 252 255 256 253 255 259 256 257 257 253 251 250 255 246 241
262 239 231 227 230 235 238 242 244 250 252 263 267 265 268 267 262 258 256 248 253 252
267 258 239 227 231 242 241 246 251 261 260 263 274 263 262 263 276 284 276 273 270 265
255 261 261 262 263 262 259 256 254 253 272 278 283 280 282 297 271 263 272 274 265 265
271 262 265 265 262 254 250 269 283 286 296 287 283 289 286 262 272 271 273 282 233 234
299 279 275 294 318 296 296 299 295 280 271 259 263 285 308 313 284 275 294 291 284 234